{"data":{"norad_id":67346,"epoch":"2026-09-19T13:51:59.895648Z","epoch_age_seconds":155034,"freshness":"FRESH","line1":"1 67346U 26003N   26262.57777657  .00007643  00000+0  28694-3 0  9997","line2":"2 67346  42.9981 212.3472 0000127  14.1015 345.9840 15.27582406 38468","mean_motion":15.27582406,"eccentricity":1.27e-5,"inclination_deg":42.9981,"raan_deg":212.3472,"arg_perigee_deg":14.1015,"mean_anomaly_deg":345.984,"bstar":0.00028694,"rev_number":3846,"period_min":94.266600239961,"perigee_km":482.95475464763,"apogee_km":483.12902859148,"semimajor_km":6861.1788916196,"source":"CELESTRAK","updated_at":"2026-09-20T09:00:43.513655Z"}}